[[{"header":{"parameterUnit":"m.s-1","parameterCategory":1,"la1":30.2991,"la2":30.254,"lo1":-89.0895,"lo2":-89.0444,"dy":0.0017,"dx":0.0017,"nx":28,"ny":28,"refTime":"2026-02-24T09:00:00:Z","depth":0,"parameterNumber":2,"parameterNumberName":"U-component_of_WINDS"},"data":[0,0,0,0,0,0,0,0,0,0,0,0,0,0,0,0,0,0,0,0,0,0,0,0,0,0,0,0,0,0,0,0,0,0,0,0,0,0,0,0,0,0,0,0,0,0,0,0,0,0,0,0,0,0,0,0,0,0,3.5603,3.5605,0,3.578,3.5782,3.5784,3.5818,3.5816,3.5815,3.5813,3.5994,3.6,3.6006,0,0,0,0,0,0,0,0,0,0,0,0,0,3.5291,3.5297,3.5603,3.5605,3.5607,3.578,3.5783,3.5785,3.5818,3.5816,3.5814,3.5813,3.5992,3.5999,3.6007,0,0,0,0,0,0,0,0,0,0,0,0,0,3.5443,3.5299,3.5602,3.5645,3.565,3.578,3.5783,3.5786,3.5818,3.5816,3.5814,3.5812,3.599,3.5999,3.6008,3.6107,0,0,3.6036,3.604,0,0,0,0,0,0,0,0,3.5435,3.5455,3.5636,3.5642,3.5648,3.5775,3.5739,3.5893,3.5819,3.5754,3.5813,3.5811,3.5923,3.5937,3.5975,3.6116,3.6123,3.6037,3.6042,3.6046,3.6049,0,0,0,0,0,0,0,3.5424,3.5447,3.5673,3.5639,3.5646,3.5654,3.5673,3.5768,3.5848,3.576,3.5763,3.5783,3.5926,3.5966,3.598,3.6126,3.6036,3.6044,3.605,3.6054,3.6358,3.636,0,0,0,0,0,0,3.5406,3.5438,3.5667,3.5678,3.5534,3.5662,3.5683,3.5736,3.5847,3.5862,3.5785,3.5784,3.5952,3.5969,3.5986,3.6111,3.6046,3.6055,3.606,3.6355,3.6359,3.6361,0,0,0,0,0,0,3.5399,3.5426,3.566,3.5559,3.559,3.5669,3.5729,3.5741,3.5782,3.5866,3.5881,3.5812,3.5951,3.5973,3.6077,3.6117,3.6059,3.6067,3.6352,3.6356,3.636,3.636,0,0,0,0,0,0,3.539,3.5424,3.5463,3.556,3.5595,3.5748,3.5731,3.5746,3.5798,3.5798,3.5895,3.5909,3.5951,3.6063,3.6086,3.6129,3.6074,3.6349,3.6354,3.6359,3.6357,3.6363,3.6369,0,0,0,0,0,3.5379,3.5455,3.5464,3.5492,3.5645,3.5751,3.5771,3.5817,3.5801,3.584,3.5895,3.5906,3.6109,3.6074,3.61,3.6146,3.6347,3.6353,3.6358,3.6354,3.6362,3.6369,0,0,0,0,0,0,3.536,3.5469,3.548,3.559,3.5661,3.5756,3.5807,3.5824,3.59,3.5898,3.5952,3.5973,3.6074,3.6121,3.6079,3.6248,3.6227,3.6238,3.6215,3.6223,3.6229,3.6216,3.6082,0,0,0,0,0,3.5368,3.5445,3.5536,3.5624,3.5659,3.5727,3.5775,3.5804,3.588,3.591,3.5972,3.6045,3.6125,3.6176,3.6255,3.6363,3.6385,3.6408,3.6414,3.6419,3.6428,3.6489,3.6501,3.638,3.638,3.638,0,0,3.5387,3.5456,3.5501,3.5622,3.5681,3.5759,3.5752,3.5835,3.5894,3.5922,3.6025,3.6073,3.6157,3.6264,3.6314,3.6306,3.6466,3.6426,3.6429,3.6436,3.6497,3.6508,3.6518,3.6384,3.6383,3.6383,0,0,3.546,3.552,3.5601,3.566,3.5748,3.5793,3.5812,3.5906,3.5939,3.6042,3.6066,3.6136,3.6273,3.6332,3.638,3.6477,3.6491,3.6501,3.6533,3.6592,3.6602,3.661,3.6645,3.6657,3.651,3.651,3.651,0,3.5472,3.5591,3.564,3.5722,3.5775,3.5805,3.5887,3.5941,3.6051,3.6086,3.6075,3.6248,3.6307,3.6429,3.6452,3.649,3.6514,3.649,3.6597,3.6606,3.6615,3.6648,3.6661,3.651,3.651,3.651,3.651,0,3.5601,3.5684,3.5738,3.5844,3.5903,3.5984,3.6044,3.6098,3.6123,3.6168,3.6273,3.6345,3.6439,3.647,3.6494,3.6595,3.6587,3.6586,3.6565,3.6626,3.6659,3.6672,3.6511,3.6511,3.6511,3.6511,0,0,3.5667,3.58,3.5819,3.5867,3.5968,3.6032,3.6115,3.6208,3.6253,3.6327,3.6398,3.6514,3.6513,3.6568,3.6599,3.6651,3.6724,3.6643,3.6646,3.6656,3.684,3.684,3.6854,3.6733,3.6736,3.6738,3.6833,0,3.5753,3.5903,3.5949,3.6074,3.6151,3.6181,3.6253,3.6323,3.6368,3.6439,3.6489,3.657,3.6563,3.6596,3.6649,3.6703,3.6761,3.6697,3.68,3.6803,3.6778,3.6872,3.6873,3.6958,3.6846,3.6848,3.6849,0,3.5874,3.5951,3.6084,3.6175,3.6209,3.6274,3.6362,3.643,3.6509,3.6539,3.66,3.6627,3.6715,3.6689,3.6811,3.6766,3.6811,3.6844,3.6848,3.686,3.683,3.6886,3.6987,3.7,3.687,3.6868,3.6867,0,3.5909,3.6046,3.6144,3.6185,3.6294,3.6338,3.6385,3.6463,3.6515,3.6593,3.6627,3.6713,3.6761,3.6827,3.6876,3.6853,3.6994,3.6972,3.7021,3.7019,3.7049,3.7047,3.7159,3.7077,3.7077,3.7077,3.7076,0,3.6,3.608,3.6161,3.6221,3.6312,3.6364,3.6453,3.6501,3.657,3.664,3.6671,3.6735,3.6797,3.687,3.691,3.7005,3.7026,3.7052,3.7061,3.7049,3.7046,3.7079,3.7075,3.708,3.7079,3.7079,3.7078,0,3.6055,3.6112,3.6221,3.6315,3.6341,3.6404,3.6485,3.6544,3.659,3.6678,3.6702,3.6775,3.6862,3.6919,3.703,3.7057,3.7161,3.7168,3.7134,3.7139,3.7184,3.7179,3.7322,3.7344,3.7247,3.7248,3.7248,0,3.6109,3.6172,3.6273,3.6323,3.6371,3.645,3.6504,3.6558,3.6613,3.6708,3.6756,3.6846,3.692,3.7059,3.7122,3.7207,3.7217,3.7261,3.723,3.7216,3.7218,3.7214,3.7221,3.7266,3.7267,3.7268,3.7268,0,3.62,3.6226,3.6303,3.6391,3.6454,3.6526,3.6597,3.6635,3.6701,3.6762,3.6852,3.691,3.7024,3.7113,3.7204,3.7253,3.7272,3.7278,3.7294,3.7282,3.726,3.7273,3.7148,3.7274,3.7274,3.7273,3.7273,3.7273,3.6257,3.6314,3.6395,3.648,3.6539,3.6605,3.6666,3.672,3.6797,3.6894,3.6921,3.7016,3.7094,3.7218,3.7269,3.7343,3.7338,3.7361,3.7366,3.7371,3.7372,3.7248,3.736,3.736,3.736,3.736,3.736,0,3.6349,3.6403,3.6481,3.658,3.6647,3.666,3.6739,3.6794,3.6877,3.6949,3.7022,3.7126,3.7212,3.7282,3.7371,3.7417,3.7428,3.7439,3.7436,3.7447,3.7372,3.7349,3.7429,3.7429,3.7429,3.7429,3.7429,3.7428,3.6405,3.6503,3.6538,3.6666,3.6719,3.6812,3.6857,3.6918,3.6975,3.709,3.7163,3.7208,3.7279,3.7373,3.7453,3.7471,3.7503,3.7512,3.7532,3.746,3.7452,3.7445,3.7424,3.7518,3.7518,3.7601,3.7602,3.7603]},{"header":{"parameterUnit":"m.s-1","parameterCategory":1,"la1":30.2991,"la2":30.254,"lo1":-89.0895,"lo2":-89.0444,"dy":0.0017,"dx":0.0017,"nx":28,"ny":28,"refTime":"2026-02-24T09:00:00:Z","depth":0,"parameterNumber":3,"parameterNumberName":"V-component_of_WINDS"},"data":[0,0,0,0,0,0,0,0,0,0,0,0,0,0,0,0,0,0,0,0,0,0,0,0,0,0,0,0,0,0,0,0,0,0,0,0,0,0,0,0,0,0,0,0,0,0,0,0,0,0,0,0,0,0,0,0,0,0,5.4712,5.4713,0,5.4837,5.4839,5.484,5.4836,5.4834,5.4832,5.4831,5.4956,5.4961,5.4966,0,0,0,0,0,0,0,0,0,0,0,0,0,5.4465,5.447,5.4711,5.4713,5.4715,5.4837,5.4839,5.484,5.4836,5.4834,5.4832,5.483,5.4954,5.496,5.4966,0,0,0,0,0,0,0,0,0,0,0,0,0,5.458,5.4471,5.4711,5.4727,5.473,5.4837,5.4839,5.4841,5.4837,5.4834,5.4831,5.4829,5.4952,5.496,5.4967,5.5065,0,0,5.499,5.4993,0,0,0,0,0,0,0,0,5.4573,5.4589,5.4723,5.4726,5.473,5.4818,5.4798,5.4916,5.4837,5.4796,5.4831,5.4828,5.4912,5.4923,5.4952,5.5071,5.5076,5.499,5.4995,5.4998,5.5,0,0,0,0,0,0,0,5.4565,5.4583,5.4761,5.4725,5.4729,5.4727,5.4741,5.482,5.4867,5.4799,5.4799,5.4814,5.4913,5.4945,5.4955,5.5078,5.499,5.4997,5.5001,5.5004,5.5285,5.5288,0,0,0,0,0,0,5.4554,5.4577,5.4757,5.4765,5.4644,5.4734,5.4749,5.4792,5.4866,5.4875,5.4817,5.4814,5.4933,5.4946,5.4959,5.5081,5.4998,5.5005,5.5009,5.5282,5.5286,5.5289,0,0,0,0,0,0,5.4549,5.457,5.4752,5.4671,5.4694,5.4741,5.479,5.4796,5.4828,5.4879,5.4887,5.484,5.4932,5.4949,5.5039,5.5085,5.5008,5.5015,5.5279,5.5284,5.5288,5.5323,0,0,0,0,0,0,5.4542,5.4569,5.4607,5.4672,5.4698,5.4831,5.4792,5.48,5.4841,5.4838,5.4904,5.4912,5.4931,5.5028,5.5047,5.5094,5.5021,5.5275,5.5281,5.5286,5.5318,5.5328,5.5337,0,0,0,0,0,5.4533,5.461,5.4609,5.4631,5.4747,5.4834,5.4849,5.487,5.4844,5.4883,5.4916,5.491,5.5076,5.5038,5.5058,5.5108,5.5272,5.5279,5.5286,5.5314,5.5326,5.5336,0,0,0,0,0,0,5.4548,5.4619,5.4618,5.4719,5.477,5.4833,5.4882,5.4882,5.4941,5.4936,5.4959,5.4974,5.5065,5.5095,5.5051,5.5208,5.5171,5.5182,5.5185,5.5197,5.5206,5.5198,5.5027,0,0,0,0,0,5.4563,5.4628,5.4686,5.477,5.4796,5.4835,5.4873,5.4885,5.4939,5.496,5.5,5.5052,5.5116,5.5158,5.522,5.5322,5.5337,5.5366,5.5375,5.5383,5.5393,5.5451,5.5465,5.5312,5.5312,5.5312,0,0,5.4594,5.4642,5.4681,5.4774,5.4815,5.4882,5.4853,5.4924,5.4974,5.4971,5.506,5.5091,5.515,5.5248,5.5292,5.5275,5.5438,5.5392,5.5397,5.5403,5.5459,5.5474,5.5487,5.5316,5.5315,5.5315,0,0,5.4687,5.4728,5.4803,5.4846,5.491,5.4935,5.4953,5.5016,5.5037,5.5127,5.5127,5.5186,5.5295,5.5338,5.5375,5.5485,5.5481,5.5504,5.5553,5.561,5.5622,5.5633,5.5674,5.5688,5.5513,5.5513,5.5513,0,5.4718,5.482,5.4841,5.4915,5.4956,5.4957,5.5034,5.5073,5.5153,5.5182,5.5162,5.5301,5.5341,5.5449,5.5476,5.5505,5.5527,5.5497,5.5619,5.563,5.564,5.568,5.5695,5.5516,5.5515,5.5515,5.5515,0,5.4856,5.4926,5.4979,5.5058,5.5105,5.5179,5.5212,5.5257,5.5265,5.5292,5.5385,5.5433,5.5505,5.5531,5.5539,5.5642,5.5629,5.5614,5.5578,5.5657,5.5695,5.571,5.5519,5.5518,5.5518,5.5517,0,0,5.4961,5.5053,5.5072,5.5109,5.518,5.5235,5.5308,5.5381,5.542,5.5475,5.5538,5.5632,5.5618,5.5659,5.5672,5.5721,5.5808,5.57,5.5701,5.572,5.5926,5.5939,5.5956,5.5805,5.5808,5.5811,5.5922,0,5.5062,5.5196,5.5218,5.5335,5.5401,5.5404,5.5469,5.5519,5.5547,5.5606,5.5636,5.5703,5.5679,5.5705,5.5753,5.5787,5.585,5.5779,5.5865,5.5868,5.5853,5.5976,5.5989,5.6092,5.5936,5.5939,5.5941,0,5.5199,5.526,5.5384,5.5448,5.5476,5.5534,5.5603,5.566,5.5717,5.5734,5.5781,5.5788,5.5865,5.5824,5.5932,5.5883,5.5919,5.5941,5.5946,5.5956,5.5911,5.5991,5.6125,5.6141,5.5964,5.5962,5.596,0,5.5266,5.5379,5.5468,5.5499,5.5575,5.5616,5.565,5.5704,5.5747,5.5807,5.5835,5.5902,5.594,5.5991,5.6017,5.5984,5.6123,5.6084,5.614,5.6139,5.617,5.6168,5.6314,5.619,5.619,5.6189,5.6189,0,5.5378,5.5454,5.55,5.5555,5.5641,5.5665,5.5749,5.5781,5.583,5.5892,5.5897,5.5954,5.5983,5.6044,5.6064,5.6151,5.6167,5.6183,5.6188,5.6184,5.6183,5.621,5.6204,5.6193,5.6193,5.6192,5.6191,0,5.5469,5.5502,5.56,5.5665,5.5683,5.5743,5.5798,5.5852,5.5879,5.5957,5.5976,5.6019,5.6092,5.6123,5.6211,5.6225,5.6325,5.6323,5.6307,5.6309,5.6364,5.6359,5.6533,5.6558,5.6416,5.6417,5.6418,0,5.5539,5.5598,5.567,5.5712,5.5748,5.5815,5.5859,5.5885,5.5931,5.6002,5.6047,5.612,5.618,5.6297,5.6336,5.6404,5.6405,5.6461,5.6415,5.641,5.6409,5.6406,5.6413,5.647,5.6472,5.6473,5.6474,0,5.5662,5.5676,5.574,5.5811,5.5864,5.592,5.5975,5.6009,5.6043,5.6095,5.617,5.6217,5.6309,5.6382,5.6453,5.6486,5.6487,5.6488,5.6505,5.6503,5.6492,5.6501,5.6332,5.6484,5.6483,5.6483,5.6482,5.6482,5.5746,5.5799,5.5859,5.5931,5.5975,5.6027,5.6081,5.6116,5.618,5.6258,5.6269,5.6351,5.6407,5.6503,5.6539,5.6603,5.6589,5.6612,5.6619,5.6625,5.663,5.648,5.6615,5.6615,5.6615,5.6615,5.6615,0,5.5871,5.5909,5.5975,5.6053,5.611,5.6106,5.6166,5.6214,5.6286,5.6339,5.6399,5.6487,5.6558,5.6603,5.6675,5.6717,5.6719,5.6735,5.6734,5.6742,5.6638,5.6617,5.6733,5.6733,5.6733,5.6733,5.6733,5.6733,5.5942,5.6034,5.6055,5.6168,5.6206,5.6287,5.6323,5.637,5.6413,5.6512,5.6572,5.6601,5.6651,5.6727,5.6792,5.6803,5.683,5.6848,5.6859,5.6761,5.6749,5.6737,5.6718,5.6853,5.6853,5.6958,5.6959,5.6959]}]]